TimeCST,TemperatureF,Dew PointF,Humidity,Sea Level PressureIn,VisibilityMPH,Wind Direction,Wind SpeedMPH,Gust SpeedMPH,PrecipitationIn,Events,Conditions,WindDirDegrees,DateUTC
12:11 AM,8.6,5.0,85,30.08,7.0,Calm,Calm,-,N/A,,Clear,0,2013-02-25 06:11:00
12:31 AM,6.8,3.2,85,30.08,2.5,Calm,Calm,-,N/A,,Clear,0,2013-02-25 06:31:00
12:51 AM,8.6,3.2,79,30.08,4.0,Calm,Calm,-,N/A,,Clear,0,2013-02-25 06:51:00
1:11 AM,6.8,1.4,79,30.08,7.0,Calm,Calm,-,N/A,,Clear,0,2013-02-25 07:11:00
1:32 AM,6.8,3.2,85,30.08,10.0,Calm,Calm,-,N/A,,Clear,0,2013-02-25 07:32:00
1:51 AM,8.6,5.0,85,30.07,0.2,Calm,Calm,-,N/A,Fog,Light Freezing Fog,0,2013-02-25 07:51:00
2:11 AM,6.8,1.4,79,30.07,4.0,Calm,Calm,-,N/A,,Scattered Clouds,0,2013-02-25 08:11:00
2:32 AM,3.2,1.4,92,30.07,5.0,Calm,Calm,-,N/A,,Clear,0,2013-02-25 08:32:00
2:51 AM,5.0,1.4,85,30.06,5.0,Calm,Calm,-,N/A,,Clear,0,2013-02-25 08:51:00
3:11 AM,3.2,-0.4,85,30.06,7.0,Calm,Calm,-,N/A,,Scattered Clouds,0,2013-02-25 09:11:00
3:32 AM,5.0,1.4,85,30.05,5.0,Calm,Calm,-,N/A,,Mostly Cloudy,0,2013-02-25 09:32:00
3:51 AM,6.8,3.2,85,30.05,5.0,Calm,Calm,-,N/A,,Overcast,0,2013-02-25 09:51:00
4:11 AM,8.6,6.8,92,30.06,7.0,SSE,4.6,-,N/A,,Overcast,160,2013-02-25 10:11:00
4:32 AM,12.2,8.6,85,30.05,7.0,Calm,Calm,-,N/A,,Overcast,0,2013-02-25 10:32:00
4:51 AM,12.2,10.4,92,30.05,7.0,Calm,Calm,-,N/A,,Overcast,0,2013-02-25 10:51:00
5:11 AM,12.2,10.4,92,30.06,7.0,Calm,Calm,-,N/A,,Overcast,0,2013-02-25 11:11:00
5:32 AM,14.0,10.4,86,30.06,7.0,NW,3.5,-,N/A,,Overcast,310,2013-02-25 11:32:00
5:51 AM,15.8,12.2,86,30.07,7.0,Calm,Calm,-,N/A,,Overcast,0,2013-02-25 11:51:00
6:11 AM,15.8,12.2,86,30.07,7.0,Calm,Calm,-,N/A,,Overcast,0,2013-02-25 12:11:00
6:32 AM,15.8,12.2,86,30.07,7.0,Calm,Calm,-,N/A,,Overcast,0,2013-02-25 12:32:00
6:51 AM,15.8,14.0,93,30.08,7.0,Calm,Calm,-,N/A,,Overcast,0,2013-02-25 12:51:00
7:11 AM,15.8,14.0,93,30.09,7.0,Calm,Calm,-,N/A,,Overcast,0,2013-02-25 13:11:00
7:32 AM,17.6,14.0,86,30.09,5.0,Calm,Calm,-,N/A,,Overcast,0,2013-02-25 13:32:00
7:51 AM,17.6,15.8,93,30.08,5.0,Calm,Calm,-,N/A,,Overcast,0,2013-02-25 13:51:00
8:11 AM,17.6,15.8,93,30.08,5.0,Calm,Calm,-,N/A,,Overcast,0,2013-02-25 14:11:00
8:30 AM,19.4,17.6,93,30.09,5.0,Calm,Calm,-,N/A,,Overcast,0,2013-02-25 14:30:00
8:51 AM,19.4,17.6,93,30.09,7.0,Calm,Calm,-,N/A,,Overcast,0,2013-02-25 14:51:00
9:11 AM,19.4,17.6,93,30.09,7.0,Calm,Calm,-,N/A,,Overcast,0,2013-02-25 15:11:00
9:31 AM,21.2,17.6,86,30.09,7.0,Calm,Calm,-,N/A,,Overcast,0,2013-02-25 15:31:00
9:51 AM,23.0,17.6,80,30.09,10.0,Calm,Calm,-,N/A,,Overcast,0,2013-02-25 15:51:00
10:12 AM,24.8,17.6,74,30.09,7.0,Calm,Calm,-,N/A,,Overcast,0,2013-02-25 16:12:00
10:31 AM,24.8,17.6,74,30.09,7.0,Calm,Calm,-,N/A,,Overcast,0,2013-02-25 16:31:00
10:51 AM,26.6,17.6,69,30.08,7.0,Calm,Calm,-,N/A,,Overcast,0,2013-02-25 16:51:00
11:12 AM,26.6,17.6,69,30.08,10.0,Calm,Calm,-,N/A,,Overcast,0,2013-02-25 17:12:00
11:31 AM,26.6,17.6,69,30.08,10.0,Calm,Calm,-,N/A,,Overcast,0,2013-02-25 17:31:00
11:51 AM,28.4,19.4,69,30.09,10.0,Calm,Calm,-,N/A,,Overcast,0,2013-02-25 17:51:00
12:12 PM,28.4,19.4,69,30.08,10.0,Calm,Calm,-,N/A,,Scattered Clouds,0,2013-02-25 18:12:00
12:31 PM,30.2,19.4,64,30.08,7.0,Calm,Calm,-,N/A,,Clear,0,2013-02-25 18:31:00
12:51 PM,30.2,19.4,64,30.07,7.0,Calm,Calm,-,N/A,,Clear,0,2013-02-25 18:51:00
1:12 PM,32.0,19.4,60,30.06,10.0,Calm,Calm,-,N/A,,Clear,0,2013-02-25 19:12:00
1:31 PM,32.0,19.4,60,30.06,10.0,Calm,Calm,-,N/A,,Clear,0,2013-02-25 19:31:00
1:51 PM,33.8,19.4,56,30.06,10.0,WSW,3.5,-,N/A,,Clear,250,2013-02-25 19:51:00
2:12 PM,33.8,19.4,56,30.06,10.0,West,3.5,-,N/A,,Clear,260,2013-02-25 20:12:00
2:31 PM,32.0,19.4,60,30.05,10.0,Calm,Calm,-,N/A,,Clear,0,2013-02-25 20:31:00
2:51 PM,30.2,19.4,64,30.05,10.0,WNW,4.6,-,N/A,,Clear,300,2013-02-25 20:51:00
3:12 PM,30.2,19.4,64,30.04,7.0,West,3.5,-,N/A,,Clear,280,2013-02-25 21:12:00
3:31 PM,30.2,19.4,64,30.05,7.0,Calm,Calm,-,N/A,,Clear,0,2013-02-25 21:31:00
3:51 PM,30.2,19.4,64,30.05,7.0,Calm,Calm,-,N/A,,Clear,0,2013-02-25 21:51:00
4:12 PM,30.2,19.4,64,30.05,10.0,WNW,3.5,-,N/A,,Clear,300,2013-02-25 22:12:00
4:31 PM,30.2,19.4,64,30.05,10.0,WNW,3.5,-,N/A,,Clear,290,2013-02-25 22:31:00
4:51 PM,30.2,19.4,64,30.05,10.0,WNW,3.5,-,N/A,,Clear,290,2013-02-25 22:51:00
8:09 PM,15.8,12.2,86,30.06,4.0,Calm,Calm,-,N/A,,Clear,0,2013-02-26 02:09:00
8:12 PM,15.8,12.2,86,30.06,4.0,Calm,Calm,-,N/A,,Clear,0,2013-02-26 02:12:00
8:31 PM,17.6,14.0,86,30.05,3.0,Calm,Calm,-,N/A,,Clear,0,2013-02-26 02:31:00
8:52 PM,15.8,12.2,86,30.05,2.5,Calm,Calm,-,N/A,,Clear,0,2013-02-26 02:52:00
9:11 PM,15.8,12.2,86,30.05,1.8,Calm,Calm,-,N/A,,Clear,0,2013-02-26 03:11:00
9:51 PM,12.2,10.4,92,30.03,0.5,Calm,Calm,-,N/A,Fog,Light Freezing Fog,0,2013-02-26 03:51:00
10:11 PM,12.2,10.4,92,30.02,1.8,Calm,Calm,-,N/A,,Clear,0,2013-02-26 04:11:00
10:31 PM,14.0,12.2,93,30.02,2.5,Calm,Calm,-,N/A,,Clear,0,2013-02-26 04:31:00
10:51 PM,10.4,6.8,85,30.03,4.0,Calm,Calm,-,N/A,,Clear,0,2013-02-26 04:51:00
11:11 PM,8.6,5.0,85,30.03,2.5,Calm,Calm,-,N/A,,Clear,0,2013-02-26 05:11:00
11:31 PM,8.6,5.0,85,30.03,0.8,Calm,Calm,-,N/A,,Mostly Cloudy,0,2013-02-26 05:31:00
11:51 PM,8.6,6.8,92,30.04,2.5,Calm,Calm,-,N/A,,Scattered Clouds,0,2013-02-26 05:51:00